Orbital Elements at Epoch 2459200.5 (2020-Dec-17.0) TDB
Reference: JPL 12 (heliocentric ecliptic J2000)
Element | Value | Uncertainty (1-sigma) | Units |
e | .1966355650179463 | 3.7957e-08 | |
a | 2.390062346798034 | 9.6497e-09 | au |
q | 1.920091086807284 | 9.245e-08 | au |
i | 2.33160190185585 | 5.8572e-06 | deg |
node | 164.9117435170044 | 0.0001097 | deg |
peri | 244.2426093645298 | 0.0001113 | deg |
M | 55.56303325707513 | 1.9973e-05 | deg |
tp | 2458992.196907519082 (2020-May-22.69690752) | 7.407e-05 | TDB |
period | 1349.622381956292 3.70 | 8.1735e-06 2.238e-08 | d yr |
n | .2667412787554517 | 1.6154e-09 | deg/d |
Q | 2.860033606788785 | 1.1547e-08 | au |
|
| | Orbit Determination Parameters
Additional Information
|